Location: Newark
(13.6797°N, 8.5297°E)
Time: 16:58:34
(UTC+00:00)

Altair - Pass Details

Date: 31 January 2020
Orbit: 1502 x 1682 km, 47.2° (Epoch: 25 February)

Event Time Altitude Azimuth Distance (km) Brightness Sun altitude
Rises 11:37:32 0° 335° (NNW) 4,928 9.9 58.9°
Reaches altitude 10° 11:42:43 10° 357° (N) 3,931 9.4 58.9°
Maximum altitude 11:48:14 16° 31° (NNE) 3,469 9.3 58.8°
Drops below altitude 10° 11:53:40 10° 65° (ENE) 3,882 9.6 58.7°
Sets 11:58:39 0° 86° (E) 4,836 10.0 58.5°
